Jerez de la Frontera, Spain

5:43 AM CET on February 22, 2017 (GMT +0100)
Jerez de la Frontera

Weather History for LEJR - October, 2012

Change the Weather History Date:

Monday, October 29, 2012

  Actual Average Record
Temperature  
Mean Temperature 60 °F -  
Max Temperature 69 °F 65 °F 84 °F (1998)
Min Temperature 50 °F 47 °F 41 °F (2008)
Degree Days  
Heating Degree Days 6    
Growing Degree Days 10 (Base 50)    
Moisture  
Dew Point 53 °F    
Average Humidity 78    
Maximum Humidity 100    
Minimum Humidity 57    
Precipitation  
Precipitation 0.00 in 0.14 in - ()
Sea Level Pressure  
Sea Level Pressure 29.88 in    
Wind  
Wind Speed 3 mph ()    
Max Wind Speed 10 mph    
Max Gust Speed -    
Visibility 7.2 miles    
Events      
Averages and records for this station are not official NWS values.
T = Trace of Precipitation, MM = Missing Value Source: Averaged Metar Reports

Daily Weather History Graph

Daily Weather History Graph

Search for Another Location

Airport or City:

Trip Planner

Search our weather history database for the weather conditions in past years. The results will help you decide how hot, cold, wet, or windy it might be!

Date:

Astronomy

Oct. 29, 2012 Rise Set
Actual Time 7:45 AM CET 6:30 PM CET
Civil Twilight 7:18 AM CET 6:56 PM CET
Nautical Twilight 6:48 AM CET 7:27 PM CET
Astronomical Twilight 6:17 AM CET 7:57 PM CET
Moon 6:14 PM CET (10/29) 7:22 AM CET (10/29)
Length of Visible Light 11h 38m
Length of Day
10h 44m
Full, 100% of the Moon is Illuminated
Oct 29
Full
Oct 29
Full
Nov 7
Last Quarter
Nov 13
New
Nov 20
First Quarter

Hourly Weather History & Observations

Time (CET) Temp. Dew Point Humidity Pressure Visibility Wind Dir Wind Speed Gust Speed Precip Events Conditions
1:00 AM 51 °F 49 °F 90% 30.01 in 19 mi NNE 2.3 mph - -   Clear
5:00 AM 53.6 °F 51.8 °F 94% 29.95 in 6.2 mi Variable 2.3 mph - N/A   Mostly Cloudy
5:30 AM 51.8 °F 50.0 °F 94% 29.95 in 6.2 mi North 3.5 mph - N/A   Mostly Cloudy
6:00 AM 51.8 °F 50.0 °F 94% 29.95 in 6.2 mi North 3.5 mph - N/A   Mostly Cloudy
6:30 AM 51.8 °F 50.0 °F 94% 29.95 in 6.2 mi North 3.5 mph - N/A   Mostly Cloudy
7:00 AM 51.8 °F 50.0 °F 94% 29.92 in 6.2 mi NNE 4.6 mph - N/A   Partly Cloudy
7:30 AM 50.0 °F 50.0 °F 100% 29.92 in 6.2 mi Variable 1.2 mph - N/A   Partly Cloudy
8:00 AM 51.8 °F 50.0 °F 94% 29.92 in 6.2 mi Variable 2.3 mph - N/A   Mostly Cloudy
8:30 AM 51.8 °F 50.0 °F 94% 29.95 in 6.2 mi Variable 1.2 mph - N/A   Mostly Cloudy
9:00 AM 53.6 °F 51.8 °F 94% 29.95 in 6.2 mi Variable 2.3 mph - N/A   Mostly Cloudy
9:30 AM 53.6 °F 51.8 °F 94% 29.95 in 6.2 mi Variable 2.3 mph - N/A   Mostly Cloudy
10:00 AM 55.4 °F 53.6 °F 94% 29.95 in 6.2 mi Variable 1.2 mph - N/A   Mostly Cloudy
10:30 AM 57.2 °F 55.4 °F 94% 29.92 in 6.2 mi Calm Calm - N/A   Mostly Cloudy
11:00 AM 60.8 °F 55.4 °F 82% 29.92 in 6.2 mi Calm Calm - N/A   Scattered Clouds
11:30 AM 62.6 °F 55.4 °F 77% 29.92 in 6.2 mi Calm Calm - N/A   Scattered Clouds
12:00 PM 62.6 °F 55.4 °F 77% 29.92 in 6.2 mi Calm Calm - N/A   Scattered Clouds
12:30 PM 66.2 °F 53.6 °F 64% 29.92 in 6.2 mi SE 3.5 mph - N/A   Scattered Clouds
1:00 PM 67 °F 55 °F 57% 29.90 in 19 mi SE 10.4 mph - -   Scattered Clouds
1:00 PM 68.0 °F 55.4 °F 64% 29.89 in 6.2 mi SSE 9.2 mph - N/A   Scattered Clouds
1:30 PM 68.0 °F 53.6 °F 60% 29.89 in 6.2 mi SE 10.4 mph - N/A   Scattered Clouds
2:00 PM 68.0 °F 53.6 °F 60% 29.89 in 6.2 mi SSE 8.1 mph - N/A   Scattered Clouds
2:30 PM 66.2 °F 53.6 °F 64% 29.86 in 6.2 mi SSE 9.2 mph - N/A   Scattered Clouds
3:00 PM 66.2 °F 53.6 °F 64% 29.86 in 6.2 mi South 8.1 mph - N/A   Scattered Clouds
3:30 PM 66.2 °F 55.4 °F 68% 29.86 in 6.2 mi South 6.9 mph - N/A   Scattered Clouds
4:00 PM 68.0 °F 53.6 °F 60% 29.83 in 6.2 mi SSE 8.1 mph - N/A   Scattered Clouds
4:30 PM 68.0 °F 53.6 °F 60% 29.83 in 6.2 mi SSE 9.2 mph - N/A   Partly Cloudy
5:00 PM 66.2 °F 53.6 °F 64% 29.83 in 6.2 mi SSE 8.1 mph - N/A   Partly Cloudy
5:30 PM 64.4 °F 55.4 °F 73% 29.83 in 6.2 mi South 5.8 mph - N/A   Scattered Clouds
6:00 PM 64.4 °F 55.4 °F 73% 29.83 in 6.2 mi South 4.6 mph - N/A   Scattered Clouds
6:30 PM 62.6 °F 53.6 °F 72% 29.83 in 6.2 mi SSW 5.8 mph - N/A   Scattered Clouds
7:00 PM 62 °F 56 °F 74% 29.83 in 19 mi East 2.3 mph - -   Scattered Clouds
7:00 PM 62.6 °F 53.6 °F 72% 29.83 in 6.2 mi Variable 1.2 mph - N/A   Partly Cloudy
7:30 PM 62.6 °F 53.6 °F 72% 29.83 in 6.2 mi Variable 2.3 mph - N/A   Partly Cloudy
8:00 PM 60.8 °F 53.6 °F 77% 29.83 in 6.2 mi Calm Calm - N/A   Partly Cloudy
8:30 PM 60.8 °F 53.6 °F 77% 29.80 in 6.2 mi Calm Calm - N/A   Partly Cloudy
9:30 PM 60.8 °F 53.6 °F 77% 29.80 in 6.2 mi SE 4.6 mph - N/A   Partly Cloudy
10:00 PM 60.8 °F 53.6 °F 77% 29.80 in 6.2 mi ESE 4.6 mph - N/A   Partly Cloudy
10:30 PM 60.8 °F 53.6 °F 77% 29.80 in 6.2 mi Variable 1.2 mph - N/A   Partly Cloudy
11:00 PM 59.0 °F 53.6 °F 82% 29.80 in 6.2 mi Calm Calm - N/A   Partly Cloudy